Latest Weather Observations for South Channel Island

IDV60901

Issued at 12:45 am EST Sunday 20 April 2014 (issued every 10 minutes, with the page automatically refreshed every 10 minutes)

About weather observations | Map of Melbourne area stations | Latest observations for Melbourne area | Other Formats
Station Details ID: 086344 Name: SOUTH CHANNEL ISLAND Lat: -38.31 Lon: 144.80 Height: 9.0 m
Data from the previous 72 hours. | See also: Recent months for locations in Victoria
Date/Time
EST
Tmp

°C
App
Tmp
°C
Dew
Point
°C
Rel
Hum
%
Delta-T

°C
Wind Press
QNH
hPa
Press
MSL
hPa
Rain
since
9 am
mm
Dir
 
Spd
km/h
Gust
km/h
Spd
kts
Gust
kts
20/12:30am - - - - - NW 15 19 8 10 - - -
20/12:00am - - - - - WNW 15 19 8 10 - - -
 
Date/Time
EST
Tmp

°C
App
Tmp
°C
Dew
Point
°C
Rel
Hum
%
Delta-T

°C
Wind Press
QNH
hPa
Press
MSL
hPa
Rain
since
9 am
mm
Dir
 
Spd
km/h
Gust
km/h
Spd
kts
Gust
kts
19/11:30pm - - - - - WNW 17 20 9 11 - - -
19/11:00pm - - - - - WNW 17 22 9 12 - - -
19/10:30pm - - - - - WNW 13 20 7 11 - - -
19/10:00pm - - - - - WSW 15 19 8 10 - - -
19/09:30pm - - - - - SW 15 20 8 11 - - -
19/09:00pm - - - - - WSW 17 20 9 11 - - -
19/08:30pm - - - - - WSW 17 20 9 11 - - -
19/08:00pm - - - - - SW 17 19 9 10 - - -
19/07:30pm - - - - - SW 19 24 10 13 - - -
19/07:00pm - - - - - WSW 17 22 9 12 - - -
19/06:30pm - - - - - WSW 19 22 10 12 - - -
19/06:00pm - - - - - SW 20 24 11 13 - - -
19/05:30pm - - - - - SW 19 24 10 13 - - -
19/05:00pm - - - - - SW 26 30 14 16 - - -
19/04:30pm - - - - - SW 28 33 15 18 - - -
19/04:00pm - - - - - SSW 26 33 14 18 - - -
19/03:30pm - - - - - SSW 32 37 17 20 - - -
19/03:00pm - - - - - SW 28 32 15 17 - - -
19/02:30pm - - - - - SSW 13 26 7 14 - - -
19/02:00pm - - - - - SSW 24 33 13 18 - - -
19/01:30pm - - - - - SSW 39 44 21 24 - - -
19/01:00pm - - - - - SW 20 37 11 20 - - -
19/12:30pm - - - - - W 17 24 9 13 - - -
19/12:00pm - - - - - W 24 39 13 21 - - -
19/11:30am - - - - - W 33 39 18 21 - - -
19/11:18am - - - - - W 37 41 20 22 - - -
19/11:00am - - - - - SSW 28 33 15 18 - - -
19/10:30am - - - - - W 26 33 14 18 - - -
19/10:00am - - - - - SSW 22 26 12 14 - - -
19/09:30am - - - - - S 30 33 16 18 - - -
19/09:25am - - - - - S 32 33 17 18 - - -
19/09:00am - - - - - S 11 15 6 8 - - -
19/08:30am - - - - - S 22 32 12 17 - - -
19/08:00am - - - - - W 24 30 13 16 - - -
19/07:30am - - - - - SSW 26 32 14 17 - - -
19/07:00am - - - - - SSW 26 32 14 17 - - -
19/06:30am - - - - - S 30 39 16 21 - - -
19/06:26am - - - - - S 28 39 15 21 - - -
19/06:00am - - - - - SW 13 15 7 8 - - -
19/05:56am - - - - - SW 13 15 7 8 - - -
19/05:33am - - - - - S 41 46 22 25 - - -
19/05:30am - - - - - SW 37 43 20 23 - - -
19/05:00am - - - - - SW 32 37 17 20 - - -
19/04:30am - - - - - S 30 35 16 19 - - -
19/04:20am - - - - - SSW 28 46 15 25 - - -
19/04:00am - - - - - SSW 30 35 16 19 - - -
19/03:30am - - - - - SSW 32 37 17 20 - - -
19/03:00am - - - - - SSW 39 44 21 24 - - -
19/02:30am - - - - - SW 37 46 20 25 - - -
19/02:00am - - - - - SW 35 41 19 22 - - -
19/01:30am - - - - - SW 32 41 17 22 - - -
19/01:00am - - - - - SW 43 50 23 27 - - -
19/12:30am - - - - - SW 33 43 18 23 - - -
19/12:00am - - - - - SW 35 44 19 24 - - -
 
Date/Time
EST
Tmp

°C
App
Tmp
°C
Dew
Point
°C
Rel
Hum
%
Delta-T

°C
Wind Press
QNH
hPa
Press
MSL
hPa
Rain
since
9 am
mm
Dir
 
Spd
km/h
Gust
km/h
Spd
kts
Gust
kts
18/11:30pm - - - - - SW 39 46 21 25 - - -
18/11:00pm - - - - - SW 37 44 20 24 - - -
18/10:30pm - - - - - SW 39 46 21 25 - - -
18/10:00pm - - - - - SW 39 48 21 26 - - -
18/09:30pm - - - - - SW 41 48 22 26 - - -
18/09:00pm - - - - - SW 43 50 23 27 - - -
18/08:30pm - - - - - SW 41 48 22 26 - - -
18/08:00pm - - - - - SW 41 50 22 27 - - -
18/07:30pm - - - - - SW 43 52 23 28 - - -
18/07:00pm - - - - - WSW 44 52 24 28 - - -
18/06:30pm - - - - - WSW 39 54 21 29 - - -
18/06:00pm - - - - - WSW 32 39 17 21 - - -
18/05:30pm - - - - - WSW 35 41 19 22 - - -
18/05:00pm - - - - - SW 43 57 23 31 - - -
18/04:57pm - - - - - WSW 50 69 27 37 - - -
18/04:49pm - - - - - WSW 57 69 31 37 - - -
18/04:47pm - - - - - WSW 39 69 21 37 - - -
18/04:30pm - - - - - WSW 39 48 21 26 - - -
18/04:00pm - - - - - SW 44 54 24 29 - - -
18/03:30pm - - - - - SW 50 61 27 33 - - -
18/03:00pm - - - - - SW 46 56 25 30 - - -
18/02:30pm - - - - - WSW 32 39 17 21 - - -
18/02:00pm - - - - - SW 48 61 26 33 - - -
18/01:30pm - - - - - SW 50 57 27 31 - - -
18/01:00pm - - - - - SW 50 61 27 33 - - -
18/12:30pm - - - - - SW 48 57 26 31 - - -
18/12:00pm - - - - - SW 39 59 21 32 - - -
18/11:35am - - - - - SW 46 69 25 37 - - -
18/11:30am - - - - - SW 48 54 26 29 - - -
18/11:00am - - - - - SW 50 57 27 31 - - -
18/10:30am - - - - - WSW 43 57 23 31 - - -
18/10:18am - - - - - WSW 44 50 24 27 - - -
18/10:00am - - - - - W 52 67 28 36 - - -
18/09:56am - - - - - W 48 67 26 36 - - -
18/09:30am - - - - - WNW 37 48 20 26 - - -
18/09:00am - - - - - WNW 37 43 20 23 - - -
18/08:45am - - - - - WNW 41 52 22 28 - - -
18/08:30am - - - - - W 28 33 15 18 - - -
18/08:00am - - - - - NNW 24 30 13 16 - - -
18/07:30am - - - - - NNW 26 30 14 16 - - -
18/07:00am - - - - - NNW 28 32 15 17 - - -
18/06:30am - - - - - NNW 20 26 11 14 - - -
18/06:00am - - - - - N 17 20 9 11 - - -
18/05:30am - - - - - NNW 17 19 9 10 - - -
18/05:00am - - - - - NW 20 26 11 14 - - -
18/04:30am - - - - - WNW 26 28 14 15 - - -
18/04:00am - - - - - NW 22 26 12 14 - - -
18/03:30am - - - - - WNW 20 26 11 14 - - -
18/03:00am - - - - - WNW 22 26 12 14 - - -
18/02:30am - - - - - W 24 28 13 15 - - -
18/02:00am - - - - - WNW 26 30 14 16 - - -
18/01:30am - - - - - WNW 32 37 17 20 - - -
18/01:16am - - - - - WNW 30 33 16 18 - - -
18/01:00am - - - - - NNE 13 15 7 8 - - -
18/12:30am - - - - - NNE 7 9 4 5 - - -
18/12:00am - - - - - SE 9 9 5 5 - - -
 
Date/Time
EST
Tmp

°C
App
Tmp
°C
Dew
Point
°C
Rel
Hum
%
Delta-T

°C
Wind Press
QNH
hPa
Press
MSL
hPa
Rain
since
9 am
mm
Dir
 
Spd
km/h
Gust
km/h
Spd
kts
Gust
kts
17/11:30pm - - - - - S 11 13 6 7 - - -
17/11:00pm - - - - - SSW 13 13 7 7 - - -
17/10:30pm - - - - - WSW 9 11 5 6 - - -
17/10:00pm - - - - - W 9 11 5 6 - - -
17/09:30pm - - - - - E 15 19 8 10 - - -
17/09:00pm - - - - - E 19 20 10 11 - - -
17/08:30pm - - - - - E 19 24 10 13 - - -
17/08:00pm - - - - - E 17 20 9 11 - - -
17/07:30pm - - - - - E 17 19 9 10 - - -
17/07:00pm - - - - - E 15 17 8 9 - - -
17/06:30pm - - - - - ESE 11 13 6 7 - - -
17/06:00pm - - - - - ENE 9 11 5 6 - - -
17/05:30pm - - - - - E 11 13 6 7 - - -
17/05:00pm - - - - - E 13 13 7 7 - - -
17/04:30pm - - - - - E 11 13 6 7 - - -
17/04:00pm - - - - - ENE 11 11 6 6 - - -
17/03:30pm - - - - - E 13 15 7 8 - - -
17/03:00pm - - - - - E 17 17 9 9 - - -
17/02:30pm - - - - - E 15 17 8 9 - - -
17/02:00pm - - - - - ENE 13 13 7 7 - - -
17/01:30pm - - - - - NE 13 15 7 8 - - -
17/01:00pm - - - - - NE 11 13 6 7 - - -
17/12:30pm - - - - - NNE 11 13 6 7 - - -
17/12:00pm - - - - - NNE 11 13 6 7 - - -
17/11:30am - - - - - NNE 13 13 7 7 - - -
17/11:00am - - - - - N 11 15 6 8 - - -
17/10:30am - - - - - N 11 13 6 7 - - -
17/10:00am - - - - - N 13 15 7 8 - - -
17/09:30am - - - - - N 13 15 7 8 - - -
17/09:00am - - - - - NNW 11 15 6 8 - - -
17/08:30am - - - - - N 9 11 5 6 - - -
17/08:00am - - - - - N 7 9 4 5 - - -
17/07:30am - - - - - N 7 9 4 5 - - -
17/07:00am - - - - - N 9 9 5 5 - - -
17/06:30am - - - - - NNW 7 9 4 5 - - -
17/06:00am - - - - - W 6 9 3 5 - - -
17/05:30am - - - - - WSW 9 11 5 6 - - -
17/05:00am - - - - - WSW 9 11 5 6 - - -
17/04:30am - - - - - W 9 11 5 6 - - -
17/04:00am - - - - - W 9 11 5 6 - - -
17/03:30am - - - - - WSW 9 9 5 5 - - -
17/03:00am - - - - - W 9 9 5 5 - - -
17/02:30am - - - - - W 11 11 6 6 - - -
17/02:00am - - - - - WNW 11 13 6 7 - - -
17/01:30am - - - - - WNW 11 13 6 7 - - -
17/01:00am - - - - - NNW 9 11 5 6 - - -

Latest Capital City Observations: Canberra | Sydney | Melbourne | Brisbane | Adelaide | Perth | Hobart | Darwin

Other Formats:

Comma delimited format used in spreadsheet applications
http://www.bom.gov.au/fwo/IDV60901/IDV60901.94853.axf

JavaScript Object Notation format (JSON) in row-major order
http://www.bom.gov.au/fwo/IDV60901/IDV60901.94853.json